Time,TemperatureF,DewpointF,PressureIn,WindDirection,WindDirectionDegrees,WindSpeedMPH,WindSpeedGustMPH,Humidity,HourlyPrecipIn,Conditions,Clouds,dailyrainin,SolarRadiationWatts/m^2,SoftwareType,DateUTC
2017-03-23 00:02:00,16.7,-1.0,30.37,North,359,1.0,5.0,45,0.00,,,0.00,0,weatherlink.com 1.10,2017-03-23 04:02:00,
2017-03-23 00:17:00,16.6,-1.0,30.37,NNE,26,1.0,5.0,45,0.00,,,0.00,0,weatherlink.com 1.10,2017-03-23 04:17:00,
2017-03-23 00:32:00,16.3,-1.0,30.38,NNW,341,2.0,4.0,46,0.00,,,0.00,0,weatherlink.com 1.10,2017-03-23 04:32:00,
2017-03-23 00:47:00,16.4,-2.0,30.38,NE,44,2.0,5.0,45,0.00,,,0.00,0,weatherlink.com 1.10,2017-03-23 04:47:00,
2017-03-23 01:02:00,16.0,-1.0,30.38,North,354,0.0,2.0,47,0.00,,,0.00,0,weatherlink.com 1.10,2017-03-23 05:02:00,
2017-03-23 01:17:00,15.7,-1.0,30.38,North,359,0.0,2.0,48,0.00,,,0.00,0,weatherlink.com 1.10,2017-03-23 05:17:00,
2017-03-23 01:32:00,15.0,0.0,30.39,NW,318,2.0,3.0,51,0.00,,,0.00,0,weatherlink.com 1.10,2017-03-23 05:32:00,
2017-03-23 01:47:00,14.6,0.0,30.39,WNW,283,1.0,2.0,53,0.00,,,0.00,0,weatherlink.com 1.10,2017-03-23 05:47:00,
2017-03-23 02:02:00,14.4,0.0,30.39,WNW,283,1.0,2.0,53,0.00,,,0.00,0,weatherlink.com 1.10,2017-03-23 06:02:00,
2017-03-23 02:17:00,14.2,1.0,30.39,WNW,299,1.0,2.0,55,0.00,,,0.00,0,weatherlink.com 1.10,2017-03-23 06:17:00,
2017-03-23 02:32:00,13.8,1.0,30.39,WNW,299,0.0,2.0,57,0.00,,,0.00,0,weatherlink.com 1.10,2017-03-23 06:32:00,
2017-03-23 02:47:00,13.3,2.0,30.40,WNW,299,2.0,2.0,60,0.00,,,0.00,0,weatherlink.com 1.10,2017-03-23 06:47:00,
2017-03-23 03:04:00,13.3,2.0,30.40,WNW,299,2.0,3.0,60,0.00,,,0.00,0,weatherlink.com 1.10,2017-03-23 07:04:00,
2017-03-23 03:18:00,15.2,-1.0,30.40,NNW,337,0.0,6.0,50,0.00,,,0.00,0,weatherlink.com 1.10,2017-03-23 07:18:00,
2017-03-23 03:33:00,14.1,0.0,30.40,NNW,336,1.0,2.0,54,0.00,,,0.00,0,weatherlink.com 1.10,2017-03-23 07:33:00,
2017-03-23 03:48:00,13.5,1.0,30.40,NNW,336,1.0,2.0,58,0.00,,,0.00,0,weatherlink.com 1.10,2017-03-23 07:48:00,
2017-03-23 04:03:00,13.8,1.0,30.40,NW,314,1.0,3.0,56,0.00,,,0.00,0,weatherlink.com 1.10,2017-03-23 08:03:00,
2017-03-23 04:18:00,13.8,1.0,30.41,WSW,245,0.0,3.0,58,0.00,,,0.00,0,weatherlink.com 1.10,2017-03-23 08:18:00,
2017-03-23 04:33:00,13.3,2.0,30.41,WSW,245,0.0,2.0,60,0.00,,,0.00,0,weatherlink.com 1.10,2017-03-23 08:33:00,
2017-03-23 04:48:00,13.6,2.0,30.41,West,260,1.0,2.0,59,0.00,,,0.00,0,weatherlink.com 1.10,2017-03-23 08:48:00,
2017-03-23 05:03:00,15.4,0.0,30.42,NNE,22,1.0,4.0,51,0.00,,,0.00,0,weatherlink.com 1.10,2017-03-23 09:03:00,
2017-03-23 05:18:00,16.3,0.0,30.43,NNE,25,2.0,8.0,48,0.00,,,0.00,0,weatherlink.com 1.10,2017-03-23 09:18:00,
2017-03-23 05:33:00,16.4,-1.0,30.43,North,359,1.0,5.0,47,0.00,,,0.00,0,weatherlink.com 1.10,2017-03-23 09:33:00,
2017-03-23 05:48:00,16.0,-1.0,30.44,NNE,27,2.0,4.0,47,0.00,,,0.00,0,weatherlink.com 1.10,2017-03-23 09:48:00,
2017-03-23 06:03:00,15.9,-1.0,30.44,North,10,1.0,4.0,48,0.00,,,0.00,0,weatherlink.com 1.10,2017-03-23 10:03:00,
2017-03-23 06:18:00,16.2,-1.0,30.45,NNE,21,1.0,5.0,47,0.00,,,0.00,0,weatherlink.com 1.10,2017-03-23 10:18:00,
2017-03-23 06:33:00,16.5,-1.0,30.46,NNW,337,3.0,9.0,46,0.00,,,0.00,0,weatherlink.com 1.10,2017-03-23 10:33:00,
2017-03-23 06:49:00,16.7,-1.0,30.47,NNE,26,2.0,5.0,46,0.00,,,0.00,5,weatherlink.com 1.10,2017-03-23 10:49:00,
2017-03-23 07:04:00,16.4,-1.0,30.48,NNE,16,2.0,4.0,46,0.00,,,0.00,12,weatherlink.com 1.10,2017-03-23 11:04:00,
2017-03-23 07:19:00,16.4,0.0,30.48,North,11,1.0,3.0,48,0.00,,,0.00,19,weatherlink.com 1.10,2017-03-23 11:19:00,
2017-03-23 07:34:00,17.4,-1.0,30.49,North,4,3.0,8.0,45,0.00,,,0.00,30,weatherlink.com 1.10,2017-03-23 11:34:00,
2017-03-23 07:49:00,18.6,0.0,30.49,North,359,6.0,8.0,44,0.00,,,0.00,142,weatherlink.com 1.10,2017-03-23 11:49:00,
2017-03-23 08:04:00,19.5,0.0,30.49,NE,53,7.0,12.0,42,0.00,,,0.00,193,weatherlink.com 1.10,2017-03-23 12:04:00,
2017-03-23 08:19:00,20.3,0.0,30.49,North,4,4.0,15.0,41,0.00,,,0.00,244,weatherlink.com 1.10,2017-03-23 12:19:00,
2017-03-23 08:34:00,21.3,0.0,30.50,North,4,8.0,13.0,40,0.00,,,0.00,292,weatherlink.com 1.10,2017-03-23 12:34:00,
2017-03-23 08:49:00,22.1,1.0,30.50,NE,42,4.0,12.0,39,0.00,,,0.00,343,weatherlink.com 1.10,2017-03-23 12:49:00,
2017-03-23 09:04:00,23.0,1.0,30.51,NNE,33,6.0,15.0,39,0.00,,,0.00,392,weatherlink.com 1.10,2017-03-23 13:04:00,
2017-03-23 09:20:00,23.7,1.0,30.50,NNE,33,10.0,15.0,38,0.00,,,0.00,441,weatherlink.com 1.10,2017-03-23 13:20:00,
2017-03-23 09:34:00,24.5,2.0,30.50,NNW,343,8.0,13.0,37,0.00,,,0.00,485,weatherlink.com 1.10,2017-03-23 13:34:00,
2017-03-23 09:49:00,25.2,2.0,30.50,North,354,5.0,15.0,36,0.00,,,0.00,526,weatherlink.com 1.10,2017-03-23 13:49:00,
2017-03-23 10:04:00,26.0,2.0,30.50,WNW,291,5.0,19.0,35,0.00,,,0.00,570,weatherlink.com 1.10,2017-03-23 14:04:00,
2017-03-23 10:20:00,26.4,1.0,30.50,NNE,29,10.0,20.0,34,0.00,,,0.00,610,weatherlink.com 1.10,2017-03-23 14:20:00,
2017-03-23 10:35:00,27.1,1.0,30.50,NE,45,16.0,21.0,33,0.00,,,0.00,645,weatherlink.com 1.10,2017-03-23 14:35:00,
2017-03-23 10:50:00,28.1,2.0,30.50,North,11,15.0,19.0,33,0.00,,,0.00,677,weatherlink.com 1.10,2017-03-23 14:50:00,
2017-03-23 11:05:00,28.8,2.0,30.49,North,9,11.0,22.0,32,0.00,,,0.00,708,weatherlink.com 1.10,2017-03-23 15:05:00,
2017-03-23 11:20:00,29.5,3.0,30.49,NNE,33,9.0,18.0,32,0.00,,,0.00,731,weatherlink.com 1.10,2017-03-23 15:20:00,
2017-03-23 11:35:00,29.9,3.0,30.49,NNE,18,17.0,20.0,32,0.00,,,0.00,754,weatherlink.com 1.10,2017-03-23 15:35:00,
2017-03-23 11:50:00,30.7,3.0,30.49,North,4,13.0,15.0,31,0.00,,,0.00,773,weatherlink.com 1.10,2017-03-23 15:50:00,
2017-03-23 12:05:00,30.8,5.0,30.48,NE,43,9.0,15.0,33,0.00,,,0.00,788,weatherlink.com 1.10,2017-03-23 16:05:00,
2017-03-23 12:20:00,31.6,3.0,30.48,North,359,5.0,16.0,29,0.00,,,0.00,802,weatherlink.com 1.10,2017-03-23 16:20:00,
2017-03-23 12:35:00,32.1,3.0,30.48,NNW,347,5.0,20.0,29,0.00,,,0.00,809,weatherlink.com 1.10,2017-03-23 16:35:00,
2017-03-23 12:50:00,32.4,3.0,30.47,NNW,343,9.0,19.0,29,0.00,,,0.00,810,weatherlink.com 1.10,2017-03-23 16:50:00,
2017-03-23 13:05:00,33.1,3.0,30.47,NNE,23,4.0,11.0,28,0.00,,,0.00,814,weatherlink.com 1.10,2017-03-23 17:05:00,
2017-03-23 13:20:00,33.3,3.0,30.46,NW,319,1.0,17.0,28,0.00,,,0.00,810,weatherlink.com 1.10,2017-03-23 17:20:00,
2017-03-23 13:35:00,33.1,4.0,30.46,WNW,282,2.0,11.0,29,0.00,,,0.00,802,weatherlink.com 1.10,2017-03-23 17:35:00,
2017-03-23 13:51:00,33.7,5.0,30.45,NNE,13,11.0,15.0,30,0.00,,,0.00,789,weatherlink.com 1.10,2017-03-23 17:51:00,